sat.trackr.live / text

‹ back to catalog

ONEWEB-0512

NORAD 54130 · 2022-138T

PAYLOAD ACTIVE UNKNOWN

§ Identity

Operator
Country
UK
Launch date
2022-10-22
Launch site
SRILR
Launch vehicle
Mass (kg)
RCS (m²)

Purposes: comms

External: N2YO · Heavens-Above · Gunter

§ Orbital elements

Epoch: 2026-05-25T04:25:14.726208Z

Period
109.11 min
Inclination
87.9150°
Eccentricity
0.0001789
Mean motion
13.19727080 rev/d
Perigee alt
1,184.4 km
Apogee alt
1,187.1 km
Semi-major
7,563.9 km
B*
1.3448e-4
RAAN
309.5587°
Arg perigee
82.4022°
Mean anomaly
277.7313°
Rev number
17,377

§ Raw data

ONEWEB-05121 54130U 22138T   26145.18419822  .00000067  00000+0  13448-3 0  99972 54130  87.9150 309.5587 0001789  82.4022 277.7313 13.19727080173778

JSON: /api/v1/satellites/54130 · /tle

For live sub-satellite position, see the globe view (requires WebGL).

§ Visibility from observer

Set your observer location to see the next 7 days of passes ≥ 10°. The values pass through the URL so the page stays shareable.

No JS? Fill the form by hand. The geolocation button needs JavaScript.